Previsão horária em Plota

Hoje, 3 Março, Quarta-feira

Tempo Temperatura Precipitação Vento Pressão Humidade
00:00 -3°C° 0.1 mm 6 m/s 739 mmHg 94%
01:00 -3°C° 0.1 mm 6 m/s 739 mmHg 91%
02:00 -4°C° 0.1 mm 6 m/s 740 mmHg 88%
03:00 -4°C° 0 mm 6 m/s 740 mmHg 87%
04:00 -4°C° 0 mm 6 m/s 740 mmHg 86%
05:00 -4°C° 0 mm 6 m/s 741 mmHg 86%
06:00 -4°C° 0 mm 7 m/s 741 mmHg 84%
07:00 -4°C° 0 mm 7 m/s 742 mmHg 82%
08:00 -4°C° 0 mm 7 m/s 743 mmHg 80%
09:00 -4°C° 0 mm 7 m/s 743 mmHg 76%
10:00 -4°C° 0 mm 7 m/s 743 mmHg 72%
11:00 -3°C° 0 mm 7 m/s 744 mmHg 68%
12:00 -3°C° 0 mm 6 m/s 744 mmHg 68%
13:00 -3°C° 0 mm 6 m/s 744 mmHg 68%
14:00 -1°C° 0 mm 5 m/s 744 mmHg 68%
15:00 -2°C° 0 mm 5 m/s 744 mmHg 73%
16:00 -2°C° 0 mm 4 m/s 744 mmHg 78%
17:00 -3°C° 0 mm 4 m/s 744 mmHg 83%
18:00 -3°C° 0 mm 4 m/s 744 mmHg 85%
19:00 -4°C° 0 mm 5 m/s 744 mmHg 88%
20:00 -4°C° 0 mm 5 m/s 744 mmHg 90%
21:00 -4°C° 0 mm 5 m/s 744 mmHg 91%
22:00 -4°C° 0 mm 5 m/s 743 mmHg 91%
23:00 -4°C° 0 mm 5 m/s 743 mmHg 92%

Amanhã, 4 Março, Quinta-feira

Tempo Temperatura Precipitação Vento Pressão Humidade
00:00 -4°C° 0 mm 5 m/s 742 mmHg 92%
01:00 -4°C° 0 mm 5 m/s 742 mmHg 91%
02:00 -4°C° 0 mm 5 m/s 742 mmHg 91%
03:00 -4°C° 0 mm 5 m/s 741 mmHg 90%
04:00 -5°C° 0 mm 5 m/s 741 mmHg 89%
05:00 -5°C° 0 mm 5 m/s 740 mmHg 89%
06:00 -4°C° 0 mm 6 m/s 740 mmHg 85%
07:00 -4°C° 0 mm 6 m/s 740 mmHg 81%
08:00 -3°C° 0 mm 7 m/s 739 mmHg 77%
09:00 -2°C° 0 mm 7 m/s 739 mmHg 73%
10:00 -1°C° 0 mm 7 m/s 738 mmHg 69%
11:00 0°C° 0 mm 8 m/s 737 mmHg 64%
12:00 +1°C° 0 mm 8 m/s 737 mmHg 65%
13:00 +2°C° 0 mm 8 m/s 736 mmHg 66%
14:00 +2°C° 0 mm 8 m/s 735 mmHg 66%
15:00 +2°C° 0 mm 8 m/s 735 mmHg 71%
16:00 +2°C° 0 mm 7 m/s 734 mmHg 76%
17:00 +2°C° 0 mm 6 m/s 733 mmHg 80%
18:00 +2°C° 0 mm 6 m/s 733 mmHg 82%
19:00 +1°C° 0 mm 6 m/s 733 mmHg 83%
20:00 +1°C° 0 mm 6 m/s 733 mmHg 84%
21:00 +1°C° 0.1 mm 6 m/s 733 mmHg 86%
22:00 +1°C° 0.1 mm 6 m/s 733 mmHg 88%
23:00 +1°C° 0.1 mm 6 m/s 732 mmHg 90%

Depois de amanhã, 5 Março, Sexta-feira

Tempo Temperatura Precipitação Vento Pressão Humidade
00:00 +1°C° 0 mm 6 m/s 732 mmHg 90%
01:00 0°C° 0 mm 5 m/s 732 mmHg 91%
02:00 0°C° 0 mm 5 m/s 732 mmHg 91%
03:00 0°C° 0 mm 5 m/s 732 mmHg 91%
04:00 -1°C° 0 mm 5 m/s 732 mmHg 92%
05:00 -1°C° 0 mm 5 m/s 732 mmHg 92%
06:00 -1°C° 0 mm 5 m/s 733 mmHg 92%
07:00 -1°C° 0 mm 5 m/s 733 mmHg 92%
08:00 -1°C° 0 mm 5 m/s 733 mmHg 93%
09:00 -1°C° 0 mm 4 m/s 734 mmHg 90%
10:00 0°C° 0 mm 4 m/s 734 mmHg 87%
11:00 0°C° 0 mm 4 m/s 734 mmHg 85%
12:00 0°C° 0.4 mm 3 m/s 734 mmHg 89%
13:00 0°C° 0.4 mm 3 m/s 735 mmHg 93%
14:00 -1°C° 0.4 mm 2 m/s 735 mmHg 97%
15:00 -1°C° 0.5 mm 3 m/s 735 mmHg 96%
16:00 -2°C° 0.5 mm 3 m/s 735 mmHg 96%
17:00 -3°C° 0.5 mm 4 m/s 735 mmHg 95%
18:00 -3°C° 0.2 mm 4 m/s 736 mmHg 93%
19:00 -4°C° 0.2 mm 4 m/s 736 mmHg 90%
20:00 -4°C° 0.2 mm 4 m/s 737 mmHg 88%
21:00 -4°C° 0 mm 4 m/s 737 mmHg 86%
22:00 -5°C° 0 mm 3 m/s 737 mmHg 85%
23:00 -5°C° 0 mm 3 m/s 738 mmHg 83%

6 Março, Sábado

Tempo Temperatura Precipitação Vento Pressão Humidade
00:00 -5°C° 0 mm 3 m/s 738 mmHg 83%
01:00 -5°C° 0 mm 3 m/s 739 mmHg 84%
02:00 -6°C° 0 mm 3 m/s 739 mmHg 84%
03:00 -5°C° 0 mm 2 m/s 739 mmHg 85%
04:00 -5°C° 0 mm 2 m/s 739 mmHg 85%
05:00 -5°C° 0 mm 2 m/s 740 mmHg 86%
06:00 -4°C° 0 mm 2 m/s 740 mmHg 84%
07:00 -4°C° 0 mm 2 m/s 740 mmHg 83%
08:00 -5°C° 0 mm 3 m/s 740 mmHg 81%
09:00 -4°C° 0 mm 3 m/s 741 mmHg 74%
10:00 -4°C° 0 mm 4 m/s 741 mmHg 68%
11:00 -3°C° 0 mm 4 m/s 741 mmHg 61%
12:00 -4°C° 0.1 mm 5 m/s 741 mmHg 55%
13:00 -4°C° 0.1 mm 6 m/s 741 mmHg 49%
14:00 -3°C° 0.1 mm 6 m/s 741 mmHg 43%
15:00 -4°C° 0 mm 6 m/s 741 mmHg 47%
16:00 -5°C° 0 mm 6 m/s 741 mmHg 50%
17:00 -6°C° 0 mm 6 m/s 741 mmHg 53%
18:00 -6°C° 0 mm 6 m/s 741 mmHg 59%
19:00 -8°C° 0 mm 6 m/s 742 mmHg 64%
20:00 -8°C° 0 mm 6 m/s 742 mmHg 70%
21:00 -8°C° 0 mm 6 m/s 742 mmHg 69%
22:00 -8°C° 0 mm 6 m/s 743 mmHg 68%
23:00 -7°C° 0 mm 5 m/s 743 mmHg 68%

7 Março, Domingo

Tempo Temperatura Precipitação Vento Pressão Humidade
00:00 -8°C° 0 mm 5 m/s 743 mmHg 67%
01:00 -8°C° 0 mm 4 m/s 743 mmHg 65%
02:00 -7°C° 0 mm 3 m/s 743 mmHg 64%
03:00 -8°C° 0 mm 4 m/s 742 mmHg 63%
04:00 -8°C° 0 mm 4 m/s 742 mmHg 61%
05:00 -8°C° 0 mm 5 m/s 742 mmHg 60%
06:00 -9°C° 0 mm 6 m/s 741 mmHg 59%
07:00 -8°C° 0 mm 7 m/s 741 mmHg 58%
08:00 -8°C° 0 mm 8 m/s 740 mmHg 57%
09:00 -7°C° 0 mm 8 m/s 740 mmHg 54%
10:00 -6°C° 0 mm 9 m/s 739 mmHg 52%
11:00 -5°C° 0 mm 10 m/s 739 mmHg 50%
12:00 -5°C° 0 mm 10 m/s 738 mmHg 50%
13:00 -4°C° 0 mm 10 m/s 737 mmHg 49%
14:00 -3°C° 0 mm 10 m/s 736 mmHg 49%
15:00 -4°C° 0 mm 10 m/s 736 mmHg 53%
16:00 -4°C° 0 mm 9 m/s 735 mmHg 56%
17:00 -4°C° 0 mm 8 m/s 735 mmHg 60%
18:00 -4°C° 0 mm 8 m/s 734 mmHg 63%
19:00 -4°C° 0 mm 8 m/s 734 mmHg 66%
20:00 -5°C° 0 mm 8 m/s 734 mmHg 69%
21:00 -5°C° 0 mm 8 m/s 733 mmHg 69%
22:00 -5°C° 0 mm 8 m/s 733 mmHg 69%
23:00 -5°C° 0 mm 8 m/s 732 mmHg 69%

8 Março, Segunda-feira

Tempo Temperatura Precipitação Vento Pressão Humidade
00:00 -5°C° 0 mm 8 m/s 732 mmHg 72%
01:00 -5°C° 0 mm 8 m/s 732 mmHg 76%
02:00 -6°C° 0 mm 8 m/s 731 mmHg 79%
03:00 -6°C° 0.1 mm 8 m/s 731 mmHg 82%
04:00 -6°C° 0.1 mm 8 m/s 731 mmHg 85%
05:00 -6°C° 0.1 mm 8 m/s 731 mmHg 88%
06:00 -6°C° 0.2 mm 7 m/s 732 mmHg 82%
07:00 -7°C° 0.2 mm 7 m/s 732 mmHg 76%
08:00 -6°C° 0.2 mm 6 m/s 733 mmHg 70%
09:00 -5°C° 0 mm 6 m/s 733 mmHg 63%
10:00 -5°C° 0 mm 6 m/s 734 mmHg 57%
11:00 -4°C° 0 mm 6 m/s 734 mmHg 51%
12:00 -4°C° 0 mm 6 m/s 735 mmHg 49%
13:00 -4°C° 0 mm 6 m/s 735 mmHg 46%
14:00 -4°C° 0 mm 6 m/s 735 mmHg 44%
15:00 -5°C° 0 mm 6 m/s 735 mmHg 48%
16:00 -5°C° 0 mm 6 m/s 736 mmHg 51%
17:00 -6°C° 0 mm 5 m/s 736 mmHg 55%
18:00 -6°C° 0 mm 5 m/s 736 mmHg 57%
19:00 -7°C° 0 mm 5 m/s 737 mmHg 59%
20:00 -7°C° 0 mm 4 m/s 737 mmHg 61%
21:00 -7°C° 0 mm 4 m/s 738 mmHg 64%
22:00 -8°C° 0 mm 4 m/s 738 mmHg 67%
23:00 -8°C° 0 mm 4 m/s 738 mmHg 69%
Mostrar mais

Necessitamos do seu Consentimento

A Meteoprog e os seus Fornecedores de Serviços podem armazenar e aceder a dados pessoais como cookies, identificadores do dispositivo ou outras tecnologias semelhantes existentes no seu dispositivo e processar estes dados para personalizar conteúdos e anúncios, assim como funcionalidades nas redes sociais e análise de tráfego.

  • Armazenar e/ou aceder a informações no seu dispositivo

    Os cookies, identificadores do dispositivo ou outras informações podem ser armazenados ou acedidos no seu dispositivo, para os fins acima indicados.

  • Anúncios e conteúdos personalizados, medição de anúncios e conteúdos, dados sobre o público-alvo e desenvolvimento de produtos

    Os anúncios e os conteúdos podem ser personalizados com base num perfil. Podem ser adicionados dados adicionais para uma maior personalização dos anúncios e dos conteúdos. A eficácia dos anúncios e dos conteúdos pode ser medida. Podem ser obtidas informações sobre o público que visualizou os anúncios e os conteúdos. Estes dados podem ser usados para desenvolver ou melhorar sistemas, softwares ou a experiência do utilizador.

Ao clicar em "Eu concordo”, permitirá o uso de cookies, identificadores do dispositivo e web beacons mencionados ou outras tecnologias semelhantes. As configurações do navegador do seu dispositivo podem ser alteradas.

Para certos fins, podem ser invocados interesses legítimos ao invés de consentimento. Pode ler mais informação sobre este assunto na nossa Política de Privacidade e Cookies.